Stations météo

réclame
Mon MeteoGroup
Schleswig, Allemagne (10035): Température de l'air & dewpoint: 14.10.2017 16:00:00 - 20.10.2017 16:00:00 (CEST)Schleswig, Allemagne (10035): Température de l'air 5cm & Température de l'air -5cm: 14.10.2017 16:00:00 - 20.10.2017 16:00:00 (CEST)Schleswig, Allemagne (10035): Température de l'air -20cm & Température de l'air -100cm: 14.10.2017 16:00:00 - 20.10.2017 16:00:00 (CEST)Schleswig, Allemagne (10035): Vitesse du vent & gusts: 14.10.2017 16:00:00 - 20.10.2017 16:00:00 (CEST)Schleswig, Allemagne (10035): Direction du vent: 14.10.2017 16:00:00 - 20.10.2017 16:00:00 (CEST)Schleswig, Allemagne (10035): reduced air pressure: 14.10.2017 16:00:00 - 20.10.2017 16:00:00 (CEST)Schleswig, Allemagne (10035): visibility: 14.10.2017 16:00:00 - 20.10.2017 16:00:00 (CEST)Schleswig, Allemagne (10035): Ensoleillement: 14.10.2017 16:00:00 - 20.10.2017 16:00:00 (CEST)Schleswig, Allemagne (10035): Quantités de précipitations: 14.10.2017 16:00:00 - 20.10.2017 16:00:00 (CEST)
Date & Time tt [°C] td [°C] tt 5cm [°C] tt -5cm [°C] tt -20cm [°C] tt -100cm [°C] ff [km/h] ff [knt] fx [km/h] fx [knt] dd ppp [hPa] vv [km] sd [min] rr [mm]
20.10.2017 16:00:00 13,9 12,4 13,2 13,3 13,0 13,5 13 7 27 14 SSE 1008,8 7 0 0,7
20.10.2017 15:00:00 14,0 12,2 13,2 13,4 12,9 13,5 13 7 25 13 SE 1009,1 9 0 0,0
20.10.2017 14:00:00 14,0 12,2 13,3 13,3 12,9 13,5 11 6 28 15 SSE 1009,5 8 0 1,4
20.10.2017 13:00:00 13,3 11,8 12,7 12,9 12,8 13,5 6 4 14 8 S 1010,1 5 0 0,9
20.10.2017 12:00:00 13,4 11,5 12,8 12,9 12,7 13,5 6 4 16 9 S 1010,4 5 0 0,1
20.10.2017 11:00:00 12,9 11,6 12,9 12,7 12,7 13,5 8 5 21 11 SSE 1009,6 3,5 0 0,0
20.10.2017 10:00:00 12,0 11,3 11,8 12,1 12,7 13,5 11 6 21 11 ESE 1009,2 2,5 0 0,0
20.10.2017 09:00:00 11,7 11,4 11,5 11,9 12,8 13,5 9 5 18 10 ESE 1009,3 1,7 0 0,0
20.10.2017 08:00:00 11,6 11,4 11,4 12,0 12,8 13,5 9 5 18 10 SE 1009,6 1,5 0 0,0
20.10.2017 07:00:00 11,5 11,2 11,5 12,0 12,8 13,5 10 5 19 10 SE 1009,8 1,1 0 0,0
20.10.2017 06:00:00 11,5 11,3 11,5 12,0 12,8 13,5 10 5 19 11 ESE 1010,0 0,7 0 0,0
20.10.2017 05:00:00 11,5 11,4 11,5 12,0 12,8 13,5 9 5 18 10 SE 1010,2 0,4 0 0,0
20.10.2017 04:00:00 11,9 11,7 11,8 12,0 12,9 13,5 8 5 21 11 SSE 1010,5 0,7 0 0,0
20.10.2017 03:00:00 12,2 11,9 12,0 11,9 12,9 13,5 9 5 18 10 SSE 1010,9 1,0 0 0,0
20.10.2017 02:00:00 12,2 11,8 11,8 11,5 13,0 13,5 10 6 20 11 ESE 1010,8 1,6 0 0,0
20.10.2017 01:00:00 11,7 11,5 11,0 11,2 13,2 13,5 7 4 16 9 ESE 1011,1 2,0 0 0,0
20.10.2017 00:00:00 11,3 11,0 10,5 11,4 13,4 13,5 9 5 14 8 E 1011,5 2,0 0 0,0
19.10.2017 23:00:00 11,8 11,5 10,8 11,8 13,5 13,5 9 5 18 10 E 1012,1 3,0 0 0,0
19.10.2017 22:00:00 12,2 11,7 11,2 12,1 13,7 13,5 10 5 17 9 E 1012,2 4,5 0 0,0
19.10.2017 21:00:00 12,3 11,7 11,5 12,5 13,8 13,5 10 5 21 11 E 1012,2 7 0 0,0
19.10.2017 20:00:00 12,7 11,7 11,9 13,0 13,9 13,5 11 6 24 13 E 1012,4 9 0 0,0
19.10.2017 19:00:00 12,7 11,7 12,3 13,5 14,0 13,5 13 7 23 12 E 1012,6 9 0 0,0
19.10.2017 18:00:00 12,9 11,7 12,5 14,1 14,0 13,5 14 8 24 13 E 1012,6 10 0 0,0
19.10.2017 17:00:00 13,6 11,7 13,5 15,0 13,9 13,5 15 8 27 14 E 1012,7 10 0 0,0
19.10.2017 16:00:00 14,4 12,1 15,1 15,8 13,7 13,5 16 8 24 13 E 1013,0 10 0 0,0
19.10.2017 15:00:00 14,8 12,0 16,9 16,0 13,5 13,5 12 7 22 12 E 1013,4 8 3 0,0
19.10.2017 14:00:00 15,0 11,6 16,1 16,0 13,3 13,5 16 9 24 13 E 1013,7 10 12 0,0
19.10.2017 13:00:00 14,7 11,5 16,1 15,8 13,0 13,5 14 8 22 12 E 1013,8 10 55 0,0
19.10.2017 12:00:00 14,6 11,0 17,2 14,7 12,8 13,5 13 7 24 13 ESE 1014,1 15 60 0,0
19.10.2017 11:00:00 13,6 10,7 14,7 13,5 12,8 13,5 12 7 20 11 ESE 1014,3 18 47 0,0
19.10.2017 10:00:00 12,8 11,0 12,8 12,4 12,8 13,5 10 6 16 9 E 1014,4 15 1 0,0
19.10.2017 09:00:00 12,3 10,8 12,0 12,0 12,8 13,5 10 5 17 9 E 1014,1 15 0 0,0
19.10.2017 08:00:00 12,2 10,8 11,9 11,9 12,9 13,5 10 5 17 9 E 1014,0 15 0 0,0
19.10.2017 07:00:00 12,0 10,7 11,4 11,8 12,9 13,5 9 5 19 10 E 1014,1 15 0 0,0
19.10.2017 06:00:00 12,2 11,0 11,7 12,1 13,0 13,5 11 6 20 11 E 1014,2 18 0 0,0
19.10.2017 05:00:00 12,3 11,0 12,0 12,1 13,0 13,5 9 5 19 10 E 1014,6 16 0 0,0
19.10.2017 04:00:00 12,2 10,9 11,8 12,2 13,1 13,5 10 5 17 9 E 1014,7 16 0 0,0
19.10.2017 03:00:00 12,3 10,3 12,0 12,3 13,2 13,5 10 5 15 8 E 1014,8 18 0 0,0
19.10.2017 02:00:00 12,4 10,6 12,1 12,4 13,2 13,5 9 5 16 8 E 1015,0 18 0 0,0
19.10.2017 01:00:00 12,3 10,8 12,0 12,5 13,3 13,5 9 5 14 8 E 1015,0 20 0 0,0
19.10.2017 00:00:00 12,1 10,7 11,7 12,6 13,3 13,5 5 3 8 4 ENE 1015,1 22 0 0,0
18.10.2017 23:00:00 12,3 10,7 12,0 12,7 13,4 13,5 4 2 14 8 ENE 1015,2 25 0 0,0
18.10.2017 22:00:00 12,8 10,1 12,4 12,9 13,5 13,5 9 5 13 7 ESE 1014,9 25 0 0,0
18.10.2017 21:00:00 13,2 10,3 12,9 13,2 13,5 13,5 8 4 14 7 ESE 1015,0 25 0 0,0
18.10.2017 20:00:00 13,4 10,9 13,1 13,4 13,6 13,5 7 4 11 6 ESE 1015,0 20 0 0,0
18.10.2017 19:00:00 13,0 11,6 12,4 13,8 13,6 13,6 1 1 5 3 E 1014,9 18 0 0,0
18.10.2017 18:00:00 13,8 11,8 13,3 14,2 13,6 13,6 3 2 8 4 ESE 1014,7 10 0 0,0
18.10.2017 17:00:00 14,5 10,7 14,3 14,7 13,5 13,6 4 2 8 4 SSE 1014,7 28 0 0,0
18.10.2017 16:00:00 14,9 10,7 15,1 15,3 13,3 13,6 4 2 8 4 S 1014,8 25 0 0,0
18.10.2017 15:00:00 15,0 10,6 15,6 15,4 13,0 13,6 4 2 9 5 SSW 1014,9 30 0 0,0
18.10.2017 14:00:00 15,0 11,0 15,8 15,9 12,7 13,6 2 1 13 7 SW 1015,0 30 17 0,0
18.10.2017 13:00:00 15,5 11,2 17,1 15,7 12,3 13,6 8 4 15 8 W 1015,4 25 26 0,0
18.10.2017 12:00:00 14,0 11,5 16,0 13,8 12,2 13,6 9 5 15 8 WSW 1015,5 12 17 0,0
18.10.2017 11:00:00 11,9 11,1 12,2 12,2 12,1 13,6 9 5 18 10 SW 1015,4 5 0 0,0
18.10.2017 10:00:00 11,4 11,1 11,6 11,4 12,0 13,6 11 6 20 11 WSW 1015,4 2,5 0 0,0
18.10.2017 09:00:00 10,6 10,4 10,6 10,8 12,1 13,6 10 6 18 10 SW 1015,2 1,9 0 0,0
18.10.2017 08:00:00 10,2 10,1 10,0 10,3 12,2 13,6 9 5 17 9 SW 1014,9 2,0 0 0,0
18.10.2017 07:00:00 10,3 10,0 9,7 10,2 12,2 13,6 9 5 16 9 SW 1014,8 7 0 0,0
18.10.2017 06:00:00 10,7 10,3 10,2 10,3 12,3 13,6 11 6 19 11 SW 1015,0 8 0 0,0
18.10.2017 05:00:00 10,9 10,5 10,1 10,4 12,4 13,6 13 7 23 12 SW 1015,0 10 0 0,0
18.10.2017 04:00:00 11,1 10,5 10,2 10,4 12,6 13,6 13 7 28 15 SW 1015,0 11 0 0,0
18.10.2017 03:00:00 11,0 10,3 10,2 10,5 12,7 13,6 13 7 26 14 SW 1015,3 11 0 0,0
18.10.2017 02:00:00 11,0 10,2 10,0 10,6 12,8 13,6 13 7 26 14 SW 1015,4 13 0 0,0
18.10.2017 01:00:00 11,2 10,3 10,3 10,8 12,9 13,6 12 6 22 12 SW 1015,7 15 0 0,0
18.10.2017 00:00:00 11,5 10,2 10,4 11,1 13,1 13,6 11 6 32 17 SW 1015,5 16 0 0,0
17.10.2017 23:00:00 11,7 9,9 10,8 11,3 13,2 13,5 13 7 26 14 SW 1016,0 19 0 0,0
17.10.2017 22:00:00 12,0 9,7 10,8 11,3 13,3 13,5 16 9 37 20 SW 1015,7 20 0 0,0
17.10.2017 21:00:00 12,1 10,2 11,4 11,6 13,5 13,5 14 8 31 17 WSW 1016,1 18 0 0,0
17.10.2017 20:00:00 12,1 10,0 11,0 11,8 13,7 13,5 13 7 28 15 SW 1016,1 20 0 0,0
17.10.2017 19:00:00 12,3 9,8 11,2 12,3 13,8 13,5 17 9 34 19 WSW 1015,9 20 0 0,0
17.10.2017 18:00:00 13,1 10,2 12,1 13,1 13,8 13,5 18 10 45 24 WSW 1015,9 20 0 0,0
17.10.2017 17:00:00 13,9 10,1 13,5 13,9 13,8 13,5 22 12 50 27 WSW 1016,3 20 8 0,0
17.10.2017 16:00:00 14,2 10,2 14,4 14,5 13,7 13,5 24 13 45 25 WSW 1016,7 20 26 0,0
17.10.2017 15:00:00 14,4 10,5 15,1 14,6 13,6 13,5 22 12 47 25 WSW 1017,1 20 13 0,0
17.10.2017 14:00:00 14,4 10,7 14,7 14,6 13,5 13,5 22 12 44 24 WSW 1017,7 20 0 0,0
17.10.2017 13:00:00 14,4 10,8 14,9 14,2 13,4 13,5 21 12 52 28 WSW 1017,8 20 0 0,0
17.10.2017 12:00:00 14,4 10,9 14,7 13,7 13,3 13,5 21 11 41 22 WSW 1018,0 18 0 0,0
17.10.2017 11:00:00 14,0 11,3 13,9 13,0 13,3 13,5 21 11 41 22 WSW 1017,7 18 0 0,0
17.10.2017 10:00:00 13,8 11,2 13,2 12,4 13,4 13,5 19 10 39 21 WSW 1017,8 18 0 0,0
17.10.2017 09:00:00 13,5 10,8 12,5 12,1 13,5 13,5 16 9 36 19 WSW 1017,7 15 0 0,0
17.10.2017 08:00:00 13,8 11,1 12,6 12,2 13,6 13,5 16 8 37 20 WSW 1017,3 15 0 0,0
17.10.2017 07:00:00 14,4 11,6 12,7 12,6 13,7 13,5 15 8 27 15 WSW 1017,1 15 0 0,0
17.10.2017 06:00:00 15,2 12,3 13,9 13,0 13,8 13,5 16 8 29 16 WSW 1016,9 15 0 0,0
17.10.2017 05:00:00 15,6 13,6 14,3 13,1 13,8 13,5 13 7 29 16 WSW 1017,2 12 0 0,0
17.10.2017 04:00:00 15,8 13,6 14,3 13,2 13,9 13,5 14 7 28 15 WSW 1017,4 12 0 0,0
17.10.2017 03:00:00 16,1 13,6 14,6 13,4 13,9 13,5 17 9 29 16 SW 1017,6 10 0 0,0
17.10.2017 02:00:00 15,8 13,9 14,2 13,3 14,0 13,5 16 8 24 13 SSW 1017,7 7 0 0,0
17.10.2017 01:00:00 15,1 14,1 13,8 13,3 14,1 13,5 12 7 16 9 S 1017,7 4,5 0 0,0
17.10.2017 00:00:00 15,1 14,2 13,8 13,4 14,2 13,5 11 6 19 10 SSW 1017,9 4,2 0 0,0
16.10.2017 23:00:00 15,2 14,4 13,9 13,5 14,3 13,5 10 5 20 11 S 1018,1 3,5 0 0,0
16.10.2017 22:00:00 15,3 14,7 14,3 13,5 14,5 13,5 10 6 15 8 S 1018,3 3,0 0 0,0
16.10.2017 21:00:00 14,5 14,2 12,4 13,7 14,6 13,5 7 4 9 5 S 1018,7 2,0 0 0,0
16.10.2017 20:00:00 14,9 14,4 13,0 14,3 14,7 13,5 6 3 10 5 SSE 1019,0 2,5 0 0,0
16.10.2017 19:00:00 15,2 14,3 12,9 15,1 14,8 13,5 6 3 10 6 S 1019,3 3,5 0 0,0
16.10.2017 18:00:00 16,7 14,7 15,3 16,2 14,7 13,4 6 3 12 6 SSW 1019,2 8 0 0,0
16.10.2017 17:00:00 17,5 14,8 16,9 16,9 14,5 13,4 8 4 23 13 SW 1019,5 8 2 0,0
16.10.2017 16:00:00 18,0 14,7 18,4 17,5 14,2 13,4 17 9 28 15 SSW 1019,5 6 23 0,0
16.10.2017 15:00:00 18,6 14,9 20,3 17,5 13,9 13,4 11 6 20 11 SW 1019,8 7 34 0,0
16.10.2017 14:00:00 18,4 14,4 21,0 17,3 13,6 13,4 10 5 19 10 SW 1020,0 7 36 0,0
16.10.2017 13:00:00 16,3 14,3 17,0 15,3 13,5 13,4 8 4 16 9 WSW 1020,2 4,7 0 0,0
16.10.2017 12:00:00 15,2 13,9 15,7 14,4 13,3 13,4 10 5 28 15 W 1020,3 3,4 0 0,0
16.10.2017 11:00:00 14,5 13,4 14,7 13,8 13,2 13,4 14 7 27 15 SW 1019,7 3,7 0 0,0
16.10.2017 10:00:00 14,7 13,5 14,7 13,3 13,2 13,4 10 5 22 12 WSW 1019,3 3,8 0 0,0
16.10.2017 09:00:00 14,3 13,1 14,0 12,6 13,2 13,4 12 7 23 12 WSW 1019,0 3,8 0 0,0
16.10.2017 08:00:00 13,4 12,5 12,9 12,1 13,3 13,4 10 5 24 13 SW 1018,6 4,0 0 0,0
16.10.2017 07:00:00 12,7 11,8 11,5 11,6 13,5 13,4 11 6 22 12 SW 1018,4 5 0 0,0
16.10.2017 06:00:00 13,3 11,9 12,0 11,9 13,6 13,4 11 6 23 12 WSW 1018,2 6 0 0,0
16.10.2017 05:00:00 13,5 11,9 12,2 12,0 13,8 13,4 11 6 21 12 SW 1018,2 8 0 0,0
16.10.2017 04:00:00 13,7 11,7 12,4 12,3 13,9 13,4 11 6 22 12 SW 1018,3 10 0 0,0
16.10.2017 03:00:00 14,3 11,9 12,9 12,5 14,1 13,4 14 7 26 14 SW 1018,7 13 0 0,0
16.10.2017 02:00:00 14,2 11,9 13,0 12,7 14,2 13,3 14 8 24 13 SSW 1018,9 13 0 0,0
16.10.2017 01:00:00 14,3 12,2 13,1 13,0 14,4 13,3 15 8 24 13 SSW 1019,0 14 0 0,0
16.10.2017 00:00:00 14,9 12,5 13,6 13,3 14,6 13,3 16 9 27 15 SSW 1019,2 16 0 0,0
15.10.2017 23:00:00 15,2 12,7 14,0 13,6 14,7 13,3 16 9 24 13 SSW 1018,8 20 0 0,0
15.10.2017 22:00:00 15,4 13,0 14,0 13,9 14,9 13,3 13 7 22 12 S 1018,9 20 0 0,0
15.10.2017 21:00:00 15,8 13,4 14,5 14,4 15,1 13,3 12 7 21 11 S 1019,3 20 0 0,0
15.10.2017 20:00:00 16,1 14,2 14,6 14,9 15,2 13,3 10 6 16 9 S 1019,7 13 0 0,0
15.10.2017 19:00:00 16,8 14,9 15,0 15,7 15,3 13,3 10 5 15 8 S 1019,9 9 0 0,0
15.10.2017 18:00:00 18,0 15,2 16,5 16,6 15,2 13,3 8 4 22 12 S 1020,1 10 53 0,0
15.10.2017 17:00:00 18,9 14,8 17,9 17,5 15,0 13,3 15 8 26 14 SSW 1020,4 10 60 0,0
15.10.2017 16:00:00 19,2 15,0 20,4 18,5 14,7 13,3 14 8 24 13 SSW 1020,9 10 55 0,0
15.10.2017 15:00:00 19,5 14,7 20,8 18,9 14,3 13,3 11 6 24 13 SSW 1021,3 10 58 0,0
15.10.2017 14:00:00 18,7 14,4 20,9 18,0 14,0 13,3 10 5 20 11 SSW 1022,1 10 58 0,0
15.10.2017 13:00:00 16,4 13,5 17,9 16,3 13,8 13,3 11 6 26 14 S 1022,9 6 33 0,0
15.10.2017 12:00:00 14,1 13,0 14,5 14,9 13,7 13,3 13 7 29 16 S 1023,2 3,6 0 0,0
15.10.2017 11:00:00 13,3 12,9 13,8 14,4 13,7 13,3 18 10 28 15 SSW 1023,4 2,7 0 0,0
15.10.2017 10:00:00 13,4 13,3 13,6 13,9 13,7 13,3 12 6 21 12 SSW 1023,6 0,7 0 0,0
15.10.2017 09:00:00 13,4 13,3 13,5 13,7 13,7 13,3 7 4 16 9 SSW 1023,7 0,2 0 0,0
15.10.2017 08:00:00 13,3 13,2 13,3 13,6 13,7 13,3 10 6 17 9 WSW 1023,8 0,2 0 0,0
15.10.2017 07:00:00 13,5 13,4 13,4 13,6 13,7 13,3 9 5 22 12 SW 1023,8 0,6 0 0,0
15.10.2017 06:00:00 13,7 13,5 13,6 13,7 13,8 13,2 12 7 22 12 WSW 1023,7 1,8 0 0,0
15.10.2017 05:00:00 13,9 13,6 13,7 13,6 13,9 13,2 11 6 25 13 WSW 1023,5 2,5 0 0,0
15.10.2017 04:00:00 14,0 13,7 13,6 13,5 13,9 13,2 9 5 22 12 WSW 1023,3 4,0 0 0,0
15.10.2017 03:00:00 14,3 13,9 13,8 14,0 13,9 13,2 11 6 27 15 WSW 1023,5 4,5 0 0,0
15.10.2017 02:00:00 14,6 13,9 14,2 14,2 14,0 13,2 16 9 34 18 WSW 1023,2 4,5 0 0,0
15.10.2017 01:00:00 14,8 14,2 14,5 14,3 14,0 13,2 17 9 32 17 WSW 1023,2 6 0 0,0
15.10.2017 00:00:00 14,8 14,2 14,5 14,4 14,0 13,2 18 10 31 17 WSW 1023,3 6 0 0,0
14.10.2017 23:00:00 14,9 14,4 14,6 14,5 14,0 13,2 16 9 33 18 W 1023,3 6 0 0,0
14.10.2017 22:00:00 14,9 14,5 14,7 14,5 14,0 13,2 17 9 33 18 WSW 1023,2 5 0 0,0
14.10.2017 21:00:00 14,9 14,6 14,7 14,5 14,0 13,2 19 10 32 17 WSW 1023,2 5 0 0,1
14.10.2017 20:00:00 15,0 14,5 14,7 14,6 14,0 13,2 15 8 35 19 WSW 1023,2 5 0 0,1
14.10.2017 19:00:00 15,3 14,4 15,0 14,7 14,0 13,2 18 10 34 18 WSW 1022,5 9 0 0,0
14.10.2017 18:00:00 15,3 14,3 15,1 14,9 14,0 13,2 17 9 44 24 WSW 1022,5 8 0 0,0
14.10.2017 17:00:00 15,4 14,3 15,1 15,0 13,9 13,2 19 10 40 22 WSW 1022,2 8 0 0,0
14.10.2017 16:00:00 15,5 14,5 15,1 15,1 13,9 13,2 19 11 39 21 WSW 1022,2 7 0 0,0

tt = Température de l'air
td = dewpoint
tt 5cm = Température de l'air 5cm
tt -5cm = Température de l'air -5cm
tt -20cm = Température de l'air -20cm
tt -100cm = Température de l'air -100cm
ff = Vitesse du vent
fx = gusts
dd = Direction du vent
ppp = reduced air pressure
vv = visibility
sd = Ensoleillement
rr = Quantités de précipitations

stations d'obs. à proximité